Hourly Weather Roundup
Issued by NWS Central Illinois

Home | Current Version | Previous Version | Text Only | Print | Product List | Glossary On
Versions: 1 2 3 4 5 6 7 8 9 10 11 12 13 14 15 16 17 18 19 20 21 22 23 24 25 26 27 28 29 30 31 32 33 34 35 36 37 38 39 40 41 42 43 44 45 46 47 48 49 50
000
NZUS43 KILX 290110
HWRILX

AREA WEATHER ROUNDUP
NATIONAL WEATHER SERVICE, LINCOLN IL
800 PM CDT SAT MAR 28 2015


CITY           SKY/WX    TMP DP  RH WIND       PRES   REMARKS
BLOOMINGTON    CLEAR     33  16  50 SE5       30.28S WCI  28
CHAMPAIGN      CLEAR     32  15  49 SE5       30.29R WCI  27
DECATUR        CLEAR     36  18  48 SE5       30.29R WCI  32
EFFINGHAM      CLEAR     35  20  55 CALM      30.31S
FLORA          CLEAR     35  22  59 E3        30.31S
GALESBURG      CLEAR     34  15  46 SE3       30.24S
JACKSONVILLE   CLEAR     36  22  55 E7        30.26S WCI  31
LACON          CLEAR     35  13  41 SE7       30.26S WCI  29
LAWRENCEVILLE  CLEAR     35  20  54 E5        30.32R WCI  31
LITCHFIELD     CLEAR     35  17  49 SE5       30.28R WCI  31
$$


CITY           SKY/WX    TMP DP  RH WIND       PRES   REMARKS
LINCOLN        CLEAR     36  19  51 S3        30.29R
MACOMB         CLEAR     33  20  59 S7        30.27R WCI  27
MATTOON        CLEAR     35  18  49 CALM      30.29R
MT CARMEL AP   CLEAR     37  21  52 SE5       30.32R WCI  34
OLNEY-NOBLE AP CLEAR     34  18  51 CALM      30.32R
PARIS          CLEAR     33  19  57 CALM      30.31R
PEORIA         CLEAR     36  15  42 S6        30.27S WCI  31
PONTIAC        CLEAR     32  19  59 SE6       30.29R WCI  26
RANTOUL        CLEAR     36  16  44 E3        30.29R
ROBINSON       CLEAR     35  20  55 CALM      30.33R
SPRINGFIELD    CLEAR     34  20  56 SE8       30.28S WCI  27
TAYLORVILLE    CLEAR     34  21  60 E5        30.29R WCI  30
$$

...REGIONAL REPORTS...


CITY           SKY/WX    TMP DP  RH WIND       PRES   REMARKS
CHICAGO O`HARE CLEAR     30   9  41 SE13      30.27F WCI  20
KANKAKEE       CLEAR     34  12  40 SE3       30.30R
MOLINE         CLEAR     35  13  40 S5        30.23S WCI  31
MOUNT VERNON   CLEAR     36  14  41 E3        30.31R
PITTSFIELD     CLEAR     37  21  53 E6        30.25S WCI  32
QUINCY         CLEAR     37  19  48 SE9       30.23R WCI  30
ROCKFORD       CLEAR     34  15  46 S5        30.27R WCI  30
$$


CITY           SKY/WX    TMP DP  RH WIND       PRES   REMARKS
BURLINGTON     CLEAR     36  15  42 S7        30.22S WCI  30
CEDAR RAPIDS   CLEAR     34  15  46 SE8       30.18S WCI  27
DES MOINES     CLEAR     44  21  40 S10       30.12F
KIRKSVILLE     CLEAR     38  25  59 SE7       30.18F WCI  33
OTTUMWA        CLEAR     39  16  39 SE9       30.17S WCI  33
ST LOUIS       PTCLDY    41  17  38 E12       30.26S WCI  34
$$


CITY           SKY/WX    TMP DP  RH WIND       PRES   REMARKS
TERRE HAUTE    CLEAR     34  21  59 CALM      30.31R
EVANSVILLE     CLEAR     38  19  46 NW3       30.32R
INDIANAPOLIS   CLEAR     33  12  41 N7        30.29R WCI  27
LAFAYETTE      CLEAR     29  14  53 N5        30.31R WCI  24
MADISON        PTCLDY    35  12  38 S8        30.22S WCI  29
MILWAUKEE      CLEAR     28  13  53 S8        30.26S WCI  20
$$





USA.gov is the U.S. government's official web portal to all federal, state and local government web resources and services.